Theta_e
327 326 326 327 327 326 324 326 327 325 326 327 336 335 335 333 333 333 333 334 334 333 332 331 329 327 321 327 330 331 332 334 335 336 336 337 336 338 338 340 343 343 343 344
329 328 328 328 327 326 324 324 323 323 323 334 333 332 332 331 331 331 335 334 333 333 330 329 328 326 321 327 329 329 331 332 332 333 335 336 337 339 339 341 342 341 342 344
331 330 328 327 326 325 324 324 325 329 336 333 332 332 336 337 336 335 335 334 333 332 330 329 329 320 319 324 329 328 329 330 330 330 331 332 334 341 342 341 341 341 342 344
329 328 329 326 325 326 326 326 327 328 335 333 331 335 334 334 334 335 335 334 333 332 330 329 325 320 317 318 322 324 327 330 330 330 328 332 334 338 341 341 341 342 341 342
328 329 327 328 327 333 333 331 332 331 334 332 331 332 331 328 332 333 333 333 333 332 330 329 323 321 317 317 318 317 326 328 329 327 329 332 332 335 338 338 338 339 339 339
328 328 329 327 328 330 331 332 335 334 332 331 331 330 331 328 332 335 336 335 334 332 330 327 323 322 319 317 313 324 328 326 326 325 331 334 336 330 334 334 337 337 339 339
329 329 327 327 328 330 333 334 334 332 332 331 329 330 329 328 331 333 335 335 333 330 326 323 321 321 318 315 314 326 328 326 327 324 330 331 332 328 329 335 337 338 338 339
329 330 329 333 334 337 336 333 331 330 330 330 330 329 328 332 333 334 336 335 332 329 323 321 321 320 318 315 313 323 326 328 328 329 329 329 331 326 327 337 336 337 337 338
328 328 331 328 332 332 330 330 330 329 329 330 329 330 328 328 334 335 334 334 330 329 325 324 323 320 317 316 315 317 327 327 327 328 328 329 331 333 330 331 331 335 334 334
330 332 329 326 331 331 328 328 328 328 327 326 326 329 328 327 332 332 331 331 330 329 326 324 324 319 321 317 315 315 328 327 328 328 330 325 325 329 332 333 333 333 330 332
327 326 328 331 330 327 329 328 327 327 326 325 325 326 326 328 331 332 331 328 327 329 325 321 324 324 324 321 313 317 328 327 326 328 330 329 322 322 323 325 330 332 324 323
324 325 326 326 325 325 326 327 327 326 325 325 324 325 326 330 331 330 330 328 325 325 323 322 326 326 327 322 312 313 326 325 325 324 327 330 328 326 323 323 323 322 323 323
323 322 324 323 323 324 324 323 323 323 323 324 323 324 330 331 330 330 329 325 323 323 327 327 326 327 327 317 319 326 324 324 323 321 323 322 324 330 327 327 324 323 323 322
319 322 323 323 322 323 323 322 322 322 322 322 322 325 330 330 330 329 326 324 323 323 325 326 327 326 323 322 325 323 320 323 322 320 321 321 321 322 323 325 324 326 324 319
319 322 322 322 323 321 321 321 324 324 323 322 322 326 331 330 330 328 327 328 324 323 326 327 326 322 321 322 322 321 321 320 322 322 321 320 320 320 320 321 320 324 324 322
320 322 322 322 322 323 322 322 323 325 325 326 327 327 329 327 324 323 322 328 327 326 326 325 325 322 323 325 325 324 325 323 322 323 322 322 322 321 320 320 319 319 320 323
319 320 322 320 321 322 324 326 327 326 327 327 326 325 325 325 324 322 321 323 327 327 325 325 325 325 325 325 323 323 323 324 323 323 322 322 322 322 322 323 322 321 322 321
318 318 320 321 322 322 325 325 326 326 325 323 324 323 322 322 323 323 321 324 326 326 325 325 325 323 325 324 322 323 323 322 322 322 321 321 321 320 320 320 321 321 321 322
318 318 319 322 326 326 327 328 327 327 327 326 323 323 323 323 320 322 324 325 324 324 322 320 321 322 325 324 323 320 321 323 322 320 320 319 319 319 318 317 319 321 320 320
317 319 322 327 327 327 327 326 326 327 326 326 321 324 324 321 322 325 324 324 324 324 324 324 324 323 322 319 321 320 321 320 320 316 317 317 316 315 315 315 317 318 318 317
318 322 324 323 324 324 324 324 325 325 323 324 320 326 326 325 324 321 321 321 322 321 321 318 320 322 320 317 318 316 317 317 315 314 314 314 314 313 313 311 312 311 312 312
324 323 322 324 324 324 321 320 320 323 325 326 326 323 320 319 319 320 319 320 320 319 319 315 315 314 313 312 312 312 311 312 311 311 311 311 310 310 307 305 305 306 307 308
323 319 322 322 322 323 322 321 321 320 320 321 321 321 320 320 321 320 317 316 317 317 313 308 305 308 308 309 307 307 307 306 305 305 304 304 304 304 303 304 304 304 304 304
322 321 322 322 320 321 320 320 319 319 320 320 319 320 319 320 318 316 315 311 309 308 307 304 305 305 305 305 304 304 304 304 303 303 303 303 303 303 304 304 304 304 304 304
323 323 323 323 322 321 320 320 320 321 320 318 319 318 317 315 314 312 310 307 308 307 306 305 304 303 303 303 303 303 303 303 303 303 303 302 303 303 303 303 303 303 303 302
323 322 321 320 320 320 319 319 319 319 319 318 318 317 316 315 313 308 307 307 307 307 306 304 303 302 302 302 302 302 303 303 303 303 302 303 303 303 302 302 302 302 301 301
320 318 318 318 318 317 315 314 314 313 312 312 312 311 309 308 307 307 307 307 307 305 304 304 303 302 302 302 302 302 302 302 302 301 302 302 302 302 301 301 301 300 300 300
Wind_Speed
5 9 10 9 10 10 7 6 4 7 6 2 7 8 14 15 12 11 10 9 7 9 15 22 29 28 27 26 26 25 24 24 23 23 24 26 32 36 36 32 29 29 29 27
5 7 9 12 12 12 12 10 9 9 5 9 16 15 14 12 11 10 10 6 6 11 18 27 27 26 24 25 26 25 24 24 25 25 25 26 27 28 30 29 28 29 31 29
3 6 9 7 7 10 11 9 6 2 5 6 8 12 16 18 10 13 8 6 11 13 20 21 22 22 22 24 23 25 25 25 26 26 28 29 29 22 22 25 25 27 28 27
2 5 7 7 10 13 19 16 6 8 8 13 14 21 18 12 7 4 3 5 11 14 14 16 17 18 20 21 23 25 25 26 24 25 30 25 25 19 15 13 16 20 22 24
5 6 8 7 11 1 4 3 7 8 9 16 16 19 12 12 4 4 7 12 14 13 14 19 14 16 18 20 23 23 24 26 24 26 31 27 26 17 10 14 16 18 20 21
3 5 8 7 11 5 5 3 8 15 9 10 8 3 3 9 9 2 4 8 10 10 14 15 12 13 16 18 23 20 23 25 23 26 28 32 7 2 10 12 13 15 15 19
5 6 6 7 13 10 6 5 10 12 9 10 4 6 5 9 7 6 7 9 11 8 11 11 11 9 14 17 19 18 18 20 18 23 27 24 18 15 15 6 9 9 11 17
3 4 9 7 5 2 2 5 5 6 4 1 9 8 5 5 6 3 5 8 9 7 8 8 9 10 10 14 20 18 17 15 15 16 21 19 20 30 33 19 14 9 3 9
8 7 8 6 10 13 8 5 3 5 2 5 4 3 3 3 3 2 7 5 10 10 8 10 10 8 12 12 16 18 16 15 17 13 13 16 17 22 18 18 20 20 23 24
5 3 7 13 14 15 13 13 13 9 5 4 7 9 11 11 6 7 7 5 13 13 12 10 8 9 9 14 11 17 15 15 19 8 7 11 16 18 20 21 17 20 20 20
3 6 9 13 9 7 23 14 12 11 9 8 11 13 16 7 7 6 6 9 9 13 11 5 6 7 9 12 9 11 14 17 24 9 4 12 13 15 17 19 19 16 19 18
4 5 2 10 9 16 2 9 8 7 8 12 14 15 23 12 11 6 6 10 6 7 8 7 8 7 7 14 7 4 9 17 21 20 17 12 10 11 13 16 15 15 15 15
11 23 29 11 17 24 12 13 11 13 14 14 15 17 12 18 11 5 4 3 4 3 1 5 5 4 8 7 4 8 10 14 16 17 14 20 24 6 9 13 16 15 16 15
32 24 7 15 22 15 17 15 14 15 16 16 15 17 14 15 14 7 4 1 2 3 5 6 4 2 6 3 5 9 9 5 8 15 14 14 18 19 18 11 10 10 11 18
33 24 17 26 26 19 14 14 14 16 15 14 15 15 9 16 13 12 6 4 3 3 6 3 3 5 5 7 5 5 11 6 5 11 8 9 11 11 11 9 13 11 7 12
25 21 26 22 18 15 14 15 22 22 18 5 6 5 8 5 5 13 5 10 8 6 4 1 2 5 7 7 11 13 1 9 11 13 6 6 10 10 7 8 8 9 11 7
18 17 15 14 16 16 15 11 7 3 3 3 4 6 2 6 16 12 9 17 11 6 7 6 6 3 0 3 6 10 10 6 7 12 13 11 10 10 13 9 3 8 10 8
21 24 20 17 20 16 13 9 13 15 11 11 15 8 7 6 14 10 13 13 7 10 4 5 5 4 1 4 2 5 8 7 8 8 9 8 8 10 9 12 10 11 7 6
13 18 18 7 8 2 5 8 7 10 6 11 7 12 12 10 7 12 10 14 9 5 4 6 5 2 4 4 4 4 6 4 5 14 11 10 12 14 16 20 16 11 11 9
12 24 26 7 4 3 6 11 9 5 9 5 15 11 20 30 19 21 20 14 13 12 10 9 6 4 5 4 7 9 6 7 7 11 10 10 10 13 14 17 15 10 9 8
29 24 5 7 4 4 5 6 5 7 4 5 17 21 33 28 21 18 17 18 17 11 8 5 5 4 2 3 9 9 7 5 9 10 9 9 7 7 9 14 12 14 14 14
12 13 9 8 8 10 9 15 19 22 16 19 24 30 29 26 23 21 17 16 18 9 5 6 5 5 7 7 6 5 8 7 6 8 9 9 8 8 10 13 12 11 11 8
14 11 14 17 18 18 17 18 17 17 19 21 24 24 25 23 19 17 17 9 5 2 6 7 7 7 6 6 7 7 8 8 9 10 10 9 8 8 10 13 13 12 13 14
16 10 14 13 12 15 20 16 16 16 16 16 16 18 20 19 16 10 8 6 4 7 13 10 11 10 8 7 9 8 9 10 10 6 8 8 8 8 10 12 12 15 16 15
17 15 17 17 18 18 16 19 24 24 23 24 24 20 18 16 13 11 8 8 11 11 12 12 8 9 10 11 10 9 8 9 8 8 11 12 11 13 12 14 14 15 16 17
19 18 15 13 12 12 16 19 20 18 16 16 14 13 13 9 9 11 9 10 7 4 6 9 11 12 10 10 8 9 8 9 12 14 12 12 13 11 11 14 17 20 21 21
21 22 21 19 20 20 21 20 19 18 19 18 16 13 13 12 9 8 6 6 5 6 6 8 9 10 10 7 9 7 6 9 12 12 13 11 10 14 18 22 26 27 27 28
Wind_Direction
307 305 304 308 312 317 309 238 210 248 274 277 107 97 78 62 53 46 46 74 40 348 338 332 333 336 336 336 333 331 324 324 316 300 290 279 271 271 270 269 260 260 263 258
274 291 299 292 285 283 275 278 285 282 271 131 96 83 64 43 27 2 87 54 9 341 333 333 333 336 337 336 338 335 332 330 323 311 305 301 294 281 269 263 255 255 253 249
253 337 335 310 284 286 287 271 237 85 138 112 82 79 74 60 47 88 60 11 330 326 329 328 329 332 335 340 338 341 343 335 330 324 319 313 305 287 270 257 253 248 243 236
239 347 281 255 268 271 267 263 147 116 139 113 105 98 84 71 44 26 11 318 311 320 321 325 330 338 338 344 342 342 337 338 337 333 335 316 308 286 270 248 239 236 235 229
162 212 263 282 283 292 13 269 88 87 99 97 106 100 72 28 5 286 288 299 301 311 319 322 332 338 339 350 354 347 345 346 0 352 348 331 293 271 260 257 241 238 244 238
191 212 252 239 282 354 70 305 76 94 94 91 85 78 237 351 337 221 241 267 279 283 310 319 323 332 343 352 358 357 356 350 5 356 355 359 17 322 291 261 264 251 246 235
213 233 248 245 280 256 163 219 96 99 97 112 139 193 264 291 284 284 277 280 272 279 320 335 344 321 352 355 356 357 357 344 351 3 7 12 51 45 19 298 247 243 237 223
171 239 264 37 14 108 165 92 71 76 85 283 190 193 225 248 250 231 268 267 252 244 309 333 343 357 339 9 12 355 356 350 352 352 4 18 38 39 28 63 91 142 138 131
197 223 187 203 158 160 169 166 190 189 186 250 230 161 303 7 86 247 306 262 230 246 302 310 329 334 352 358 12 351 348 352 358 1 10 27 43 57 49 68 85 87 82 87
1 326 199 210 217 200 195 205 207 196 200 268 316 276 274 272 220 262 300 273 245 267 299 315 330 337 354 355 359 343 343 8 6 3 23 43 63 71 67 68 71 86 79 83
255 301 341 184 209 229 223 221 196 196 213 244 276 295 288 256 211 245 285 338 283 271 284 322 337 352 338 340 356 348 352 18 28 43 24 46 55 59 63 65 69 80 63 75
292 282 287 290 308 10 62 162 191 204 243 252 254 276 307 230 191 236 296 334 279 265 290 298 320 322 317 330 339 357 11 25 27 30 56 33 30 50 70 65 59 59 64 61
306 305 270 256 283 250 255 300 275 260 252 270 275 270 274 177 178 188 291 325 253 228 147 309 334 314 321 352 58 46 31 33 28 7 44 44 41 48 63 81 65 59 58 48
293 305 282 263 256 227 213 232 255 257 270 268 272 278 258 209 174 203 13 301 231 250 291 296 319 287 323 16 65 42 12 23 47 48 40 32 38 48 49 51 36 41 69 64
287 294 290 270 276 252 258 263 268 269 272 280 264 281 186 166 146 138 108 248 265 266 300 250 181 336 38 102 84 40 37 77 34 20 58 39 26 24 33 35 35 38 83 62
283 295 313 257 281 303 256 267 270 270 256 241 158 212 190 186 147 314 248 205 197 254 276 209 204 51 66 31 6 10 310 28 21 7 13 53 22 33 46 39 32 35 43 20
297 292 344 316 307 302 316 311 260 242 195 141 138 173 220 279 292 228 212 213 195 185 212 188 170 175 192 330 348 52 45 35 18 41 53 43 37 20 19 0 28 60 33 21
279 270 287 266 279 258 271 280 330 317 313 290 265 276 252 237 218 249 235 204 200 194 213 169 149 185 271 272 327 14 32 20 15 14 16 19 4 360 351 28 21 26 31 75
294 260 247 241 295 345 348 4 305 330 311 347 313 252 194 160 237 216 168 145 154 172 170 194 158 143 268 270 291 324 10 8 12 23 35 41 58 53 48 48 43 40 44 52
194 220 246 90 52 339 294 283 343 42 28 270 307 176 190 176 190 167 151 138 134 113 113 126 133 144 93 68 57 19 79 40 24 41 45 45 46 46 44 35 56 56 59 55
255 252 47 47 18 325 325 339 339 33 28 93 123 166 158 152 150 154 150 133 129 134 115 103 164 176 30 23 60 53 67 58 34 22 17 17 14 29 36 30 26 38 29 28
127 80 68 70 71 89 97 83 79 94 105 123 137 143 139 137 140 135 121 118 133 142 111 74 69 80 92 87 73 54 50 49 22 5 356 350 347 346 1 5 6 6 2 2
116 95 93 99 88 90 91 92 100 96 105 121 130 132 128 125 122 127 111 106 132 100 19 39 76 106 88 87 60 43 38 26 7 11 12 4 354 355 357 351 353 344 338 337
129 121 109 110 97 94 85 92 94 102 126 122 117 116 128 121 104 93 96 90 69 45 45 84 101 81 57 61 43 44 46 10 6 12 352 343 353 346 342 344 338 333 330 325
115 114 112 116 109 105 102 104 100 104 107 107 111 111 110 114 107 88 69 65 73 60 48 49 59 62 48 69 43 47 36 13 2 350 340 345 353 351 350 341 336 330 324 320
107 103 97 100 104 112 105 107 108 107 113 109 101 116 125 115 108 82 88 80 87 64 53 32 41 41 59 39 33 31 12 350 350 352 8 12 4 358 346 331 324 319 315 310
92 91 89 91 98 103 98 94 91 98 100 90 92 92 84 84 79 104 86 86 77 51 70 52 38 32 51 26 27 24 8 350 347 13 17 6 351 338 328 323 321 319 314 310